Location: Newark
(43.6583°N, 1.6617°E)
Time: 05:20:54
(UTC+00:00)

Courier 1B - Pass Details

Date: 02 September 2019
Orbit: 962 x 1209 km, 28.3° (Epoch: 18 September)

Event Time Altitude Azimuth Distance (km) Brightness Sun altitude
Rises 16:52:44 0° 253° (WSW) 3,975 12.3 16.3°
Reaches altitude 10° 16:56:37 10° 235° (SW) 2,965 11.2 15.6°
Maximum altitude 17:01:07 18° 196° (SSW) 2,386 9.9 14.8°
Drops below altitude 10° 17:05:28 10° 157° (SSE) 2,844 9.8 14.0°
Sets 17:09:05 0° 139° (SE) 3,749 10.2 13.3°
